GASMN04 KBHM-KMCF

Flight info

Callsign GASMN04
Flight time 1h 0m
Altitude 26000
Route KBHM/06 BHM8 ACORI DCT CABLO DCT THRTL DCT HEVVN DCT LEGGT DCT GOJOE DCT AAHOY DCT GOOFS DCT OZONA DCT CFDLL DCT HUBOT DCT MOBUE MAATY5 KMCF/ILS23
Aircraft K35R/H-SDE2E3FGHIJ1RWXYZ/LB1

Departure

Time 2026-05-07 03:26
Airport Birmingham-Shuttlesworth International Airport (KBHM)

Arrival

Time 2026-05-07 04:27
Airport MacDill Air Force Base (KMCF)
Time Latitude Longitude Altitude Speed Heading
2026-05-07 02:42 33.56767 -86.75466 673 ft 0 kts 144°
2026-05-07 03:10 33.56751 -86.75451 673 ft 14 kts 139°
2026-05-07 03:10 33.56768 -86.75353 675 ft 17 kts 55°
2026-05-07 03:11 33.56816 -86.75240 673 ft 12 kts 98°
2026-05-07 03:11 33.56771 -86.75169 674 ft 14 kts 134°
2026-05-07 03:11 33.56657 -86.75035 673 ft 20 kts 141°
2026-05-07 03:11 33.56579 -86.75049 671 ft 11 kts 232°
2026-05-07 03:12 33.56514 -86.75159 673 ft 25 kts 236°
2026-05-07 03:12 33.56411 -86.75339 677 ft 26 kts 234°
2026-05-07 03:12 33.56314 -86.75505 676 ft 23 kts 234°
2026-05-07 03:12 33.56226 -86.75659 673 ft 21 kts 236°
2026-05-07 03:13 33.56144 -86.75800 672 ft 21 kts 235°
2026-05-07 03:13 33.56064 -86.75938 676 ft 20 kts 236°
2026-05-07 03:13 33.55975 -86.76094 674 ft 25 kts 235°
2026-05-07 03:13 33.55866 -86.76281 672 ft 29 kts 235°
2026-05-07 03:14 33.55745 -86.76491 672 ft 32 kts 235°
2026-05-07 03:14 33.55619 -86.76711 676 ft 34 kts 236°
2026-05-07 03:14 33.55446 -86.77013 674 ft 14 kts 234°
2026-05-07 03:15 33.55429 -86.77041 672 ft 0 kts 239°
2026-05-07 03:25 33.55421 -86.77075 675 ft 9 kts 275°
2026-05-07 03:25 33.55479 -86.77124 676 ft 16 kts 359°
2026-05-07 03:26 33.55583 -86.76986 674 ft 55 kts 55°
2026-05-07 03:26 33.55990 -86.76277 674 ft 145 kts 55°
2026-05-07 03:26 33.56685 -86.75067 724 ft 202 kts 56°
2026-05-07 03:26 33.57505 -86.73587 1333 ft 224 kts 56°
2026-05-07 03:27 33.58403 -86.71918 1829 ft 253 kts 57°
2026-05-07 03:27 33.59433 -86.70000 2243 ft 297 kts 57°
2026-05-07 03:27 33.60662 -86.67744 2748 ft 344 kts 56°
2026-05-07 03:27 33.62041 -86.65241 3550 ft 375 kts 56°
2026-05-07 03:28 33.63531 -86.62530 4343 ft 402 kts 56°
2026-05-07 03:28 33.65119 -86.59652 5184 ft 424 kts 56°
2026-05-07 03:28 33.66734 -86.56744 5993 ft 406 kts 56°
2026-05-07 03:28 33.68263 -86.54002 6733 ft 387 kts 56°
2026-05-07 03:29 33.69707 -86.51408 7413 ft 371 kts 55°
2026-05-07 03:29 33.71100 -86.48870 8110 ft 357 kts 56°
2026-05-07 03:29 33.72436 -86.46415 8841 ft 345 kts 56°
2026-05-07 03:29 33.73721 -86.44034 9579 ft 333 kts 56°
2026-05-07 03:30 33.74953 -86.41724 10170 ft 325 kts 56°
2026-05-07 03:30 33.75775 -86.40175 10423 ft 325 kts 56°
2026-05-07 03:30 33.76988 -86.37877 10737 ft 328 kts 56°
2026-05-07 03:30 33.78200 -86.35571 11090 ft 337 kts 56°
2026-05-07 03:31 33.79504 -86.33091 11760 ft 363 kts 55°
2026-05-07 03:31 33.80893 -86.30447 12518 ft 384 kts 55°
2026-05-07 03:31 33.82353 -86.27661 13294 ft 404 kts 55°
2026-05-07 03:31 33.83808 -86.24679 14021 ft 424 kts 63°
2026-05-07 03:32 33.84655 -86.21202 14715 ft 442 kts 82°
2026-05-07 03:32 33.84643 -86.17475 15422 ft 454 kts 100°
2026-05-07 03:32 33.83750 -86.13805 16146 ft 460 kts 118°
2026-05-07 03:32 33.82045 -86.10556 16899 ft 461 kts 135°
2026-05-07 03:33 33.79671 -86.07999 17657 ft 457 kts 153°
2026-05-07 03:33 33.76837 -86.06346 18417 ft 448 kts 170°
2026-05-07 03:33 33.73809 -86.05742 19093 ft 436 kts 187°
2026-05-07 03:33 33.70856 -86.06215 19790 ft 424 kts 204°
2026-05-07 03:34 33.68118 -86.07468 20526 ft 421 kts 210°
2026-05-07 03:34 33.65436 -86.08873 21260 ft 424 kts 211°
2026-05-07 03:34 33.62726 -86.10318 22006 ft 427 kts 211°
2026-05-07 03:34 33.59992 -86.11766 22768 ft 429 kts 211°
2026-05-07 03:35 33.57244 -86.13198 23549 ft 431 kts 211°
2026-05-07 03:35 33.54471 -86.14610 24208 ft 433 kts 210°
2026-05-07 03:35 33.51691 -86.15995 24864 ft 434 kts 209°
2026-05-07 03:35 33.51125 -86.16272 24997 ft 434 kts 209°
2026-05-07 03:36 33.48318 -86.17628 25505 ft 440 kts 208°
2026-05-07 03:36 33.45429 -86.18993 25751 ft 452 kts 208°
2026-05-07 03:36 33.42485 -86.20349 25868 ft 465 kts 207°
2026-05-07 03:36 33.39405 -86.21727 25928 ft 478 kts 206°
2026-05-07 03:37 33.36247 -86.23097 25954 ft 491 kts 206°
2026-05-07 03:37 33.32974 -86.24468 25991 ft 502 kts 205°
2026-05-07 03:37 33.29624 -86.25822 26013 ft 512 kts 204°
2026-05-07 03:37 33.26205 -86.27150 26010 ft 521 kts 204°
2026-05-07 03:38 33.22719 -86.28444 26017 ft 524 kts 202°
2026-05-07 03:38 33.19226 -86.29682 26013 ft 526 kts 202°
2026-05-07 03:38 33.15702 -86.30871 26008 ft 527 kts 201°
2026-05-07 03:38 33.12150 -86.32011 26013 ft 528 kts 200°
2026-05-07 03:39 33.08597 -86.33090 26019 ft 529 kts 200°
2026-05-07 03:39 33.04947 -86.34116 25996 ft 532 kts 197°
2026-05-07 03:39 33.01287 -86.34666 25985 ft 541 kts 189°
2026-05-07 03:39 32.97501 -86.34632 25979 ft 548 kts 183°
2026-05-07 03:40 32.93684 -86.34256 25977 ft 552 kts 180°
2026-05-07 03:40 32.89859 -86.33664 25975 ft 555 kts 178°
2026-05-07 03:40 32.86045 -86.32896 25961 ft 558 kts 175°
2026-05-07 03:40 32.82225 -86.31973 25949 ft 561 kts 174°
2026-05-07 03:41 32.78418 -86.30924 25950 ft 563 kts 172°
2026-05-07 03:41 32.74663 -86.29774 25947 ft 564 kts 171°
2026-05-07 03:41 32.70831 -86.28515 25950 ft 565 kts 170°
2026-05-07 03:41 32.67055 -86.27235 25949 ft 566 kts 170°
2026-05-07 03:42 32.63292 -86.25932 25951 ft 566 kts 169°
2026-05-07 03:42 32.59495 -86.24597 25946 ft 567 kts 169°
2026-05-07 03:42 32.55765 -86.23264 25948 ft 567 kts 169°
2026-05-07 03:42 32.51950 -86.21883 25952 ft 567 kts 169°
2026-05-07 03:43 32.48165 -86.20493 25948 ft 567 kts 168°
2026-05-07 03:43 32.44454 -86.18834 25939 ft 574 kts 162°
2026-05-07 03:43 32.40843 -86.16783 25946 ft 576 kts 160°
2026-05-07 03:43 32.37213 -86.14974 25945 ft 570 kts 166°
2026-05-07 03:44 32.33448 -86.13338 25946 ft 573 kts 163°
2026-05-07 03:44 32.29858 -86.11384 25947 ft 575 kts 160°
2026-05-07 03:44 32.26175 -86.09599 25965 ft 570 kts 166°
2026-05-07 03:44 32.22455 -86.07930 25956 ft 574 kts 162°
2026-05-07 03:45 32.18830 -86.05940 25955 ft 575 kts 161°
2026-05-07 03:45 32.15117 -86.04239 25961 ft 570 kts 166°
2026-05-07 03:45 32.11421 -86.02500 25970 ft 575 kts 161°
2026-05-07 03:45 32.07784 -86.00523 25980 ft 573 kts 163°
2026-05-07 03:46 32.04052 -85.98891 25987 ft 571 kts 166°
2026-05-07 03:46 32.00376 -85.97060 25990 ft 577 kts 160°
2026-05-07 03:46 31.96720 -85.95137 25998 ft 573 kts 165°
2026-05-07 03:46 31.92975 -85.93536 26007 ft 573 kts 165°
2026-05-07 03:47 31.89308 -85.91612 26009 ft 578 kts 160°
2026-05-07 03:47 31.85628 -85.89774 26000 ft 572 kts 166°
2026-05-07 03:47 31.81894 -85.88173 25995 ft 575 kts 163°
2026-05-07 03:47 31.78274 -85.86072 25991 ft 583 kts 155°
2026-05-07 03:48 31.74861 -85.83469 25999 ft 588 kts 150°
2026-05-07 03:48 31.71665 -85.80426 25989 ft 594 kts 142°
2026-05-07 03:48 31.68735 -85.77072 25985 ft 596 kts 139°
2026-05-07 03:48 31.65783 -85.73691 25959 ft 593 kts 143°
2026-05-07 03:49 31.62591 -85.70641 25968 ft 590 kts 147°
2026-05-07 03:49 31.59446 -85.67493 25968 ft 595 kts 141°
2026-05-07 03:49 31.56463 -85.64153 25973 ft 594 kts 142°
2026-05-07 03:49 31.53274 -85.61090 26002 ft 591 kts 146°
2026-05-07 03:50 31.50164 -85.57904 26019 ft 596 kts 141°
2026-05-07 03:50 31.47139 -85.54583 26029 ft 593 kts 144°
2026-05-07 03:50 31.43930 -85.51555 26041 ft 592 kts 146°
2026-05-07 03:50 31.40930 -85.48386 26051 ft 596 kts 140°
2026-05-07 03:51 31.37838 -85.45081 26046 ft 592 kts 145°
2026-05-07 03:51 31.34587 -85.42025 26049 ft 593 kts 144°
2026-05-07 03:51 31.31574 -85.38748 26052 ft 595 kts 140°
2026-05-07 03:51 31.28460 -85.35553 26052 ft 591 kts 146°
2026-05-07 03:52 31.25274 -85.32523 26042 ft 593 kts 143°
2026-05-07 03:52 31.22258 -85.29193 26039 ft 594 kts 141°
2026-05-07 03:52 31.19109 -85.26090 26035 ft 590 kts 146°
2026-05-07 03:52 31.15985 -85.23045 26023 ft 594 kts 142°
2026-05-07 03:53 31.12984 -85.19730 26014 ft 593 kts 142°
2026-05-07 03:53 31.09756 -85.16654 26014 ft 590 kts 147°
2026-05-07 03:53 31.06673 -85.13549 26012 ft 595 kts 141°
2026-05-07 03:53 31.03649 -85.10261 26010 ft 592 kts 144°
2026-05-07 03:54 31.00437 -85.07267 26018 ft 591 kts 146°
2026-05-07 03:54 30.97358 -85.04059 26016 ft 595 kts 140°
2026-05-07 03:54 30.94294 -85.00822 26017 ft 591 kts 145°
2026-05-07 03:54 30.91080 -84.97850 26013 ft 592 kts 145°
2026-05-07 03:55 30.88042 -84.94587 26015 ft 595 kts 141°
2026-05-07 03:55 30.84932 -84.91422 26017 ft 590 kts 147°
2026-05-07 03:55 30.81722 -84.88438 26014 ft 593 kts 143°
2026-05-07 03:55 30.78717 -84.85133 26025 ft 595 kts 141°
2026-05-07 03:56 30.75572 -84.82033 26024 ft 591 kts 147°
2026-05-07 03:56 30.72366 -84.79026 26024 ft 594 kts 143°
2026-05-07 03:56 30.69349 -84.75736 26029 ft 595 kts 142°
2026-05-07 03:56 30.66166 -84.72664 26028 ft 591 kts 147°
2026-05-07 03:57 30.62988 -84.69609 26022 ft 596 kts 142°
2026-05-07 03:57 30.59914 -84.66274 26026 ft 595 kts 143°
2026-05-07 03:57 30.56714 -84.63290 26036 ft 592 kts 147°
2026-05-07 03:57 30.53605 -84.60195 26040 ft 597 kts 142°
2026-05-07 03:58 30.50551 -84.56935 26039 ft 595 kts 145°
2026-05-07 03:58 30.47305 -84.53968 26046 ft 593 kts 147°
2026-05-07 03:58 30.44207 -84.50775 26043 ft 598 kts 141°
2026-05-07 03:58 30.41116 -84.47568 26045 ft 594 kts 146°
2026-05-07 03:59 30.37870 -84.44630 26048 ft 595 kts 146°
2026-05-07 03:59 30.34797 -84.41364 26051 ft 598 kts 141°
2026-05-07 03:59 30.31661 -84.38218 26046 ft 593 kts 147°
2026-05-07 03:59 30.28423 -84.35251 26043 ft 596 kts 144°
2026-05-07 04:00 30.25367 -84.31978 26050 ft 598 kts 142°
2026-05-07 04:00 30.22205 -84.28890 26050 ft 593 kts 147°
2026-05-07 04:00 30.18995 -84.25891 26045 ft 597 kts 143°
2026-05-07 04:00 30.15987 -84.22653 26048 ft 597 kts 143°
2026-05-07 04:01 30.12785 -84.19633 26047 ft 592 kts 148°
2026-05-07 04:01 30.09610 -84.16584 26044 ft 597 kts 142°
2026-05-07 04:01 30.06555 -84.13319 26046 ft 595 kts 144°
2026-05-07 04:01 30.03328 -84.10367 26052 ft 592 kts 147°
2026-05-07 04:02 30.00197 -84.07251 26042 ft 597 kts 141°
2026-05-07 04:02 29.97127 -84.04041 26040 ft 593 kts 146°
2026-05-07 04:02 29.93883 -84.01122 26056 ft 592 kts 146°
2026-05-07 04:02 29.90803 -83.97954 26062 ft 596 kts 141°
2026-05-07 04:03 29.87686 -83.94805 26057 ft 592 kts 147°
2026-05-07 04:03 29.84439 -83.91908 26059 ft 592 kts 146°
2026-05-07 04:03 29.81177 -83.89025 26059 ft 589 kts 149°
2026-05-07 04:03 29.77803 -83.86375 26053 ft 584 kts 154°
2026-05-07 04:04 29.74240 -83.84202 26053 ft 579 kts 160°
2026-05-07 04:04 29.70605 -83.82194 26055 ft 581 kts 158°
2026-05-07 04:04 29.67097 -83.79827 26059 ft 586 kts 153°
2026-05-07 04:04 29.63611 -83.77401 25956 ft 583 kts 156°
2026-05-07 04:05 29.59991 -83.75308 25538 ft 583 kts 158°
2026-05-07 04:05 29.56453 -83.72973 25126 ft 588 kts 153°
2026-05-07 04:05 29.52960 -83.70568 24711 ft 580 kts 156°
2026-05-07 04:05 29.49423 -83.68515 24194 ft 560 kts 158°
2026-05-07 04:06 29.46099 -83.66277 23637 ft 547 kts 153°
2026-05-07 04:06 29.42900 -83.64161 22989 ft 528 kts 158°
2026-05-07 04:06 29.39677 -83.62280 22341 ft 515 kts 156°
2026-05-07 04:06 29.36629 -83.60154 21713 ft 504 kts 153°
2026-05-07 04:07 29.33591 -83.58282 21097 ft 488 kts 158°
2026-05-07 04:07 29.30734 -83.56525 20522 ft 480 kts 153°
2026-05-07 04:07 29.27901 -83.54559 19920 ft 467 kts 155°
2026-05-07 04:07 29.25044 -83.52899 19342 ft 468 kts 157°
2026-05-07 04:08 29.22139 -83.50943 19516 ft 488 kts 152°
2026-05-07 04:08 29.19171 -83.49049 20214 ft 488 kts 158°
2026-05-07 04:08 29.16145 -83.47251 20924 ft 494 kts 154°
2026-05-07 04:08 29.13199 -83.45200 21649 ft 496 kts 154°
2026-05-07 04:09 29.10128 -83.43389 22395 ft 496 kts 158°
2026-05-07 04:09 29.08115 -83.42136 22904 ft 500 kts 154°
2026-05-07 04:09 29.04133 -83.39466 23902 ft 499 kts 158°
2026-05-07 04:09 29.02039 -83.38270 24328 ft 500 kts 158°
2026-05-07 04:10 28.98021 -83.35588 25231 ft 504 kts 154°
2026-05-07 04:10 28.94915 -83.33699 25653 ft 509 kts 159°
2026-05-07 04:10 28.91765 -83.31735 25858 ft 525 kts 154°
2026-05-07 04:10 28.89675 -83.30289 25946 ft 532 kts 154°
2026-05-07 04:11 28.86366 -83.28319 26029 ft 542 kts 158°
2026-05-07 04:11 28.82983 -83.26147 26055 ft 558 kts 153°
2026-05-07 04:11 28.79653 -83.23956 26070 ft 565 kts 157°
2026-05-07 04:11 28.76129 -83.21913 26075 ft 576 kts 155°
2026-05-07 04:12 28.72653 -83.19524 26086 ft 585 kts 153°
2026-05-07 04:12 28.69058 -83.17349 26082 ft 583 kts 158°
2026-05-07 04:12 28.65464 -83.15169 26074 ft 587 kts 153°
2026-05-07 04:12 28.61972 -83.12746 26074 ft 586 kts 155°
2026-05-07 04:13 28.58338 -83.10670 26081 ft 584 kts 158°
2026-05-07 04:13 28.54779 -83.08409 26077 ft 588 kts 152°
2026-05-07 04:13 28.51275 -83.06028 26074 ft 585 kts 156°
2026-05-07 04:13 28.47631 -83.03982 26079 ft 584 kts 157°
2026-05-07 04:14 28.44098 -83.01655 26081 ft 588 kts 151°
2026-05-07 04:14 28.40568 -82.99331 26078 ft 585 kts 157°
2026-05-07 04:14 28.36905 -82.97306 26079 ft 584 kts 157°
2026-05-07 04:14 28.33351 -82.95015 26070 ft 589 kts 151°
2026-05-07 04:15 28.29948 -82.92417 25691 ft 591 kts 149°
2026-05-07 04:15 28.26539 -82.89837 25166 ft 580 kts 149°
2026-05-07 04:15 28.23280 -82.87327 24500 ft 569 kts 147°
2026-05-07 04:15 28.20247 -82.84481 23831 ft 561 kts 140°
2026-05-07 04:16 28.17488 -82.81396 23065 ft 554 kts 133°
2026-05-07 04:16 28.15166 -82.77960 22265 ft 548 kts 126°
2026-05-07 04:16 28.13058 -82.74415 21471 ft 526 kts 124°
2026-05-07 04:16 28.11121 -82.71071 20489 ft 488 kts 124°
2026-05-07 04:17 28.09332 -82.67959 19493 ft 458 kts 124°
2026-05-07 04:17 28.07641 -82.65008 18358 ft 436 kts 123°
2026-05-07 04:17 28.06022 -82.62188 16966 ft 419 kts 123°
2026-05-07 04:17 28.04453 -82.59473 15667 ft 404 kts 123°
2026-05-07 04:18 28.03089 -82.56773 14467 ft 387 kts 111°
2026-05-07 04:18 28.02471 -82.53803 13629 ft 388 kts 97°
2026-05-07 04:18 28.02166 -82.50794 12886 ft 383 kts 95°
2026-05-07 04:18 28.01931 -82.47836 12159 ft 378 kts 94°
2026-05-07 04:19 28.01721 -82.44859 11593 ft 369 kts 94°
2026-05-07 04:19 28.01527 -82.42067 11311 ft 351 kts 95°
2026-05-07 04:19 28.00859 -82.39613 11238 ft 307 kts 127°
2026-05-07 04:19 27.99153 -82.38472 10510 ft 285 kts 173°
2026-05-07 04:20 27.97259 -82.38869 9564 ft 277 kts 207°
2026-05-07 04:20 27.95638 -82.39887 9131 ft 252 kts 213°
2026-05-07 04:20 27.94422 -82.41263 8080 ft 241 kts 237°
2026-05-07 04:21 27.94654 -82.44527 6266 ft 231 kts 311°
2026-05-07 04:21 27.96017 -82.45544 5253 ft 244 kts 342°
2026-05-07 04:21 27.97695 -82.45635 4532 ft 242 kts 13°
2026-05-07 04:21 27.99165 -82.44833 3996 ft 230 kts 41°
2026-05-07 04:22 28.00077 -82.43473 3554 ft 208 kts 70°
2026-05-07 04:22 28.00261 -82.41945 3031 ft 194 kts 99°
2026-05-07 04:22 27.99765 -82.40568 2581 ft 183 kts 130°
2026-05-07 04:22 27.98741 -82.39904 2270 ft 171 kts 176°
2026-05-07 04:23 27.97677 -82.40450 1771 ft 179 kts 221°
2026-05-07 04:23 27.96755 -82.41360 1726 ft 169 kts 216°
2026-05-07 04:23 27.95836 -82.42126 1610 ft 167 kts 212°
2026-05-07 04:23 27.94881 -82.42884 1649 ft 170 kts 216°
2026-05-07 04:24 27.93960 -82.43712 1715 ft 169 kts 217°
2026-05-07 04:24 27.93019 -82.44529 1614 ft 172 kts 217°
2026-05-07 04:24 27.92090 -82.45396 1490 ft 175 kts 218°
2026-05-07 04:24 27.91138 -82.46252 1400 ft 177 kts 218°
2026-05-07 04:25 27.90166 -82.47186 1204 ft 182 kts 219°
2026-05-07 04:25 27.89248 -82.48031 936 ft 165 kts 217°
2026-05-07 04:25 27.88367 -82.48843 684 ft 158 kts 219°
2026-05-07 04:25 27.87547 -82.49615 467 ft 152 kts 220°
2026-05-07 04:26 27.86721 -82.50401 242 ft 158 kts 221°
2026-05-07 04:26 27.85883 -82.51211 30 ft 150 kts 221°
2026-05-07 04:26 27.85260 -82.51821 26 ft 71 kts 221°
2026-05-07 04:26 27.84901 -82.52155 17 ft 62 kts 220°
2026-05-07 04:27 27.84635 -82.52412 18 ft 22 kts 221°
2026-05-07 04:27 27.84523 -82.52518 26 ft 21 kts 218°
2026-05-07 04:27 27.84437 -82.52570 24 ft 4 kts 151°
2026-05-07 04:27 27.84405 -82.52537 26 ft 13 kts 133°
2026-05-07 04:28 27.84351 -82.52463 27 ft 6 kts 120°
2026-05-07 04:28 27.84355 -82.52436 26 ft 4 kts 59°
2026-05-07 04:28 27.84375 -82.52410 26 ft 5 kts 41°
2026-05-07 04:28 27.84445 -82.52343 26 ft 17 kts 40°
2026-05-07 04:29 27.84545 -82.52247 21 ft 20 kts 40°
2026-05-07 04:29 27.84584 -82.52182 22 ft 6 kts 92°
2026-05-07 04:29 27.84581 -82.52127 24 ft 7 kts 92°
2026-05-07 04:29 27.84581 -82.52065 24 ft 9 kts 89°
2026-05-07 04:30 27.84583 -82.51913 25 ft 30 kts 89°
2026-05-07 04:30 27.84582 -82.51673 26 ft 30 kts 90°
2026-05-07 04:30 27.84581 -82.51437 27 ft 30 kts 90°
2026-05-07 04:30 27.84581 -82.51234 27 ft 23 kts 89°
2026-05-07 04:31 27.84582 -82.51055 26 ft 24 kts 90°
2026-05-07 04:31 27.84581 -82.50867 26 ft 24 kts 90°
2026-05-07 04:31 27.84593 -82.50715 25 ft 13 kts 55°
2026-05-07 04:31 27.84660 -82.50634 23 ft 15 kts 45°
2026-05-07 04:32 27.84737 -82.50549 27 ft 16 kts 43°
2026-05-07 04:32 27.84816 -82.50457 26 ft 17 kts 46°
2026-05-07 04:32 27.84902 -82.50363 25 ft 18 kts 44°
2026-05-07 04:32 27.84990 -82.50262 27 ft 19 kts 44°
2026-05-07 04:33 27.85076 -82.50166 26 ft 16 kts 46°
2026-05-07 04:33 27.85157 -82.50075 26 ft 17 kts 44°
2026-05-07 04:33 27.85233 -82.49990 26 ft 13 kts 45°
2026-05-07 04:33 27.85278 -82.49921 27 ft 10 kts 69°
2026-05-07 04:34 27.85266 -82.49859 26 ft 9 kts 134°
2026-05-07 04:34 27.85215 -82.49801 26 ft 12 kts 135°
2026-05-07 04:34 27.85152 -82.49731 27 ft 14 kts 136°
2026-05-07 04:34 27.85080 -82.49650 25 ft 16 kts 134°
2026-05-07 04:35 27.85000 -82.49559 26 ft 17 kts 135°
2026-05-07 04:35 27.84912 -82.49460 26 ft 18 kts 136°
2026-05-07 04:35 27.84829 -82.49368 24 ft 17 kts 135°
2026-05-07 04:35 27.84771 -82.49304 26 ft 11 kts 135°
2026-05-07 04:36 27.84710 -82.49239 24 ft 13 kts 140°
2026-05-07 04:36 27.84628 -82.49184 25 ft 14 kts 148°
2026-05-07 04:36 27.84553 -82.49108 26 ft 15 kts 135°
2026-05-07 04:36 27.84481 -82.49027 25 ft 14 kts 134°
2026-05-07 04:37 27.84421 -82.48989 24 ft 9 kts 170°
2026-05-07 04:37 27.84357 -82.48961 24 ft 10 kts 137°
2026-05-07 04:37 27.84337 -82.48940 26 ft 0 kts 136°
2026-05-07 04:37 27.84336 -82.48939 24 ft 3 kts 136°
2026-05-07 04:38 27.84329 -82.48906 25 ft 8 kts 58°
2026-05-07 04:38 27.84361 -82.48866 24 ft 2 kts 46°
2026-05-07 04:38 27.84366 -82.48860 23 ft 0 kts 46°